FW2834 Weather Reports


Display with metric or nautical units.
time (UTC)temp
F
wind
direction
speed
MPH
gust
MPH
rain 1hr
in
rain 24hr
in
rain mn
in
humidity
%
barometer
mb
20260904160058 94 10 0.0 0.0 0.00 0.00 0.00 49 1014.1
20260904155557 94 27 0.0 0.0 0.00 0.00 0.00 49 1014.2
20260904155056 94 30 0.0 0.0 0.00 0.00 0.00 52 1014.1
20260904154611 94 286 0.0 0.0 0.00 0.00 0.00 54 1014.0
20260904154053 93 286 0.0 0.0 0.00 0.00 0.00 52 1014.1
20260904153552 93 286 0.0 0.0 0.00 0.00 0.00 55 1014.1
20260904153053 93 286 0.0 0.0 0.00 0.00 0.00 56 1014.1
20260904152550 92 334 0.0 0.0 0.00 0.00 0.00 57 1014.1
20260904152047 92 334 0.0 0.0 0.00 0.00 0.00 57 1014.0
20260904151548 92 333 0.0 0.0 0.00 0.00 0.00 57 1013.9
20260904151045 91 244 0.0 0.0 0.00 0.00 0.00 60 1014.0
20260904150548 91 255 0.0 0.0 0.00 0.00 0.00 61 1014.0
20260904150042 90 223 0.0 0.0 0.00 0.00 0.00 61 1014.0
20260904145541 89 224 0.0 0.0 0.00 0.00 0.00 62 1014.0
20260904145040 89 223 0.0 0.0 0.00 0.00 0.00 64 1013.8
20260904144538 88 223 0.0 0.0 0.00 0.00 0.00 65 1013.9
20260904144038 87 269 0.0 0.0 0.00 0.00 0.00 66 1013.9
20260904143534 86 271 0.0 0.0 0.00 0.00 0.00 67 1013.9
20260904143033 86 271 0.0 0.0 0.00 0.00 0.00 69 1013.9
20260904142535 85 220 0.0 0.0 0.00 0.00 0.00 72 1014.0
20260904142030 84 220 0.0 0.0 0.00 0.00 0.00 73 1013.9
20260904141538 83 118 0.0 0.0 0.00 0.00 0.00 74 1014.0
20260904141031 82 118 0.0 0.0 0.00 0.00 0.00 76 1014.0
20260904140526 81 118 0.0 0.0 0.00 0.00 0.00 77 1014.0
20260904140025 80 118 0.0 0.0 0.00 0.00 0.00 80 1013.9
20260904135523 80 119 0.0 0.0 0.00 0.00 0.00 86 1013.9
20260904135025 79 119 0.0 0.0 0.00 0.00 0.00 88 1013.9
20260904134521 78 119 0.0 0.0 0.00 0.00 0.00 89 1013.9
20260904134019 78 119 0.0 0.0 0.00 0.00 0.00 89 1013.9
20260904133516 77 119 0.0 0.0 0.00 0.00 0.00 89 1014.1
20260904133017 77 119 0.0 0.0 0.00 0.00 0.00 89 1014.1
20260904132515 77 119 0.0 0.0 0.00 0.00 0.00 89 1014.1
20260904132014 77 113 0.0 0.0 0.00 0.00 0.00 89 1014.0
20260904131514 77 113 0.0 0.0 0.00 0.00 0.00 89 1014.1
20260904131013 77 113 0.0 0.0 0.00 0.00 0.00 89 1014.0
20260904130512 76 113 0.0 0.0 0.00 0.00 0.00 89 1013.9
20260904130012 76 113 0.0 0.0 0.00 0.00 0.00 88 1014.1
20260904125511 75 113 0.0 0.0 0.00 0.00 0.00 88 1014.0
20260904125010 75 113 0.0 0.0 0.00 0.00 0.00 87 1014.1
20260904124510 75 113 0.0 0.0 0.00 0.00 0.00 86 1014.1
20260904124008 75 113 0.0 0.0 0.00 0.00 0.00 85 1014.1
20260904123512 74 113 0.0 0.0 0.00 0.00 0.00 85 1014.1
20260904123007 74 113 0.0 0.0 0.00 0.00 0.00 84 1014.1
20260904122508 74 113 0.0 0.0 0.00 0.00 0.00 83 1013.9
20260904122007 74 113 0.0 0.0 0.00 0.00 0.00 81 1014.0
20260904121503 73 113 0.0 0.0 0.00 0.00 0.00 81 1013.9
20260904121002 73 113 0.0 0.0 0.00 0.00 0.00 81 1013.7
20260904120501 73 113 0.0 0.0 0.00 0.00 0.00 81 1013.8
20260904120100 73 113 0.0 0.0 0.00 0.00 0.00 80 1013.7
20260904115559 73 113 0.0 0.0 0.00 0.00 0.00 80 1013.6
20260904115103 73 113 0.0 0.0 0.00 0.00 0.00 80 1013.4
20260904114559 73 113 0.0 0.0 0.00 0.00 0.00 80 1013.5
20260904114058 73 113 0.0 0.0 0.00 0.00 0.00 80 1013.4
20260904113557 73 113 0.0 0.0 0.00 0.00 0.00 80 1013.3
20260904113100 73 113 0.0 0.0 0.00 0.00 0.00 80 1013.4
20260904112556 73 113 0.0 0.0 0.00 0.00 0.00 80 1013.2
20260904112056 73 113 0.0 0.0 0.00 0.00 0.00 79 1013.3
20260904111556 73 113 0.0 0.0 0.00 0.00 0.00 79 1013.3
20260904111056 73 113 0.0 0.0 0.00 0.00 0.00 79 1013.1
20260904110555 73 113 0.0 0.0 0.00 0.00 0.00 79 1012.9
20260904110055 73 113 0.0 0.0 0.00 0.00 0.00 79 1012.9
20260904105555 74 113 0.0 0.0 0.00 0.00 0.00 79 1012.9
20260904105056 74 113 0.0 0.0 0.00 0.00 0.00 79 1012.8
20260904104555 74 113 0.0 0.0 0.00 0.00 0.00 79 1012.7
20260904104055 74 113 0.0 0.0 0.00 0.00 0.00 79 1012.7
20260904103553 74 113 0.0 0.0 0.00 0.00 0.00 79 1012.7
20260904103054 74 113 0.0 0.0 0.00 0.00 0.00 79 1012.8
20260904102554 74 113 0.0 0.0 0.00 0.00 0.00 78 1012.8
20260904102053 74 113 0.0 0.0 0.00 0.00 0.00 78 1012.7
20260904101554 74 113 0.0 1.0 0.00 0.00 0.00 78 1012.8
20260904101052 74 113 0.0 1.0 0.00 0.00 0.00 78 1012.8
20260904100552 74 113 0.0 0.0 0.00 0.00 0.00 78 1012.7
20260904095555 74 113 0.0 0.0 0.00 0.00 0.00 78 1012.8
20260904095052 74 113 0.0 0.0 0.00 0.00 0.00 78 1012.8
20260904094551 74 113 0.0 0.0 0.00 0.00 0.00 78 1012.8
20260904094051 74 113 0.0 0.0 0.00 0.00 0.00 78 1012.7
20260904093553 74 113 0.0 0.0 0.00 0.00 0.00 78 1012.7
20260904093055 74 113 0.0 0.0 0.00 0.00 0.00 77 1012.8
20260904092550 74 113 0.0 0.0 0.00 0.00 0.00 77 1012.6
20260904092049 74 113 0.0 0.0 0.00 0.00 0.00 77 1012.7
20260904091549 74 113 0.0 0.0 0.00 0.00 0.00 77 1012.8
20260904091050 74 113 0.0 0.0 0.00 0.00 0.00 77 1012.8
20260904090549 74 113 0.0 0.0 0.00 0.00 0.00 77 1012.8
20260904090052 74 113 0.0 0.0 0.00 0.00 0.00 77 1012.7
20260904085549 74 113 0.0 0.0 0.00 0.00 0.00 77 1012.8
20260904085050 74 113 0.0 0.0 0.00 0.00 0.00 76 1012.8
20260904084548 74 113 0.0 0.0 0.00 0.00 0.00 76 1012.8
20260904084047 74 113 0.0 0.0 0.00 0.00 0.00 76 1012.8
20260904083547 74 113 0.0 0.0 0.00 0.00 0.00 76 1012.8
20260904083048 74 113 0.0 0.0 0.00 0.00 0.00 76 1012.8
20260904082546 74 113 0.0 0.0 0.00 0.00 0.00 76 1012.9
20260904082045 74 113 0.0 0.0 0.00 0.00 0.00 76 1012.9
20260904081548 74 113 0.0 0.0 0.00 0.00 0.00 76 1012.8
20260904081045 74 113 0.0 0.0 0.00 0.00 0.00 76 1012.8
20260904080546 74 113 0.0 1.0 0.00 0.00 0.00 75 1012.9
20260904080051 74 113 0.0 1.0 0.00 0.00 0.00 75 1012.9
20260904075544 74 113 0.0 0.0 0.00 0.00 0.00 75 1012.8
20260904075045 74 113 0.0 0.0 0.00 0.00 0.00 75 1012.8
20260904074543 74 113 0.0 0.0 0.00 0.00 0.00 74 1012.8
20260904074042 74 113 0.0 0.0 0.00 0.00 0.00 74 1012.7
20260904073541 74 113 0.0 0.0 0.00 0.00 0.00 74 1012.8
20260904073048 74 113 0.0 0.0 0.00 0.00 0.00 74 1012.8
20260904072540 74 113 0.0 0.0 0.00 0.00 0.00 74 1012.9
20260904072040 75 113 0.0 0.0 0.00 0.00 0.00 74 1013.0
20260904071540 75 113 0.0 0.0 0.00 0.00 0.00 74 1013.0
20260904071041 75 113 0.0 0.0 0.00 0.00 0.00 74 1012.9
20260904070540 75 113 0.0 0.0 0.00 0.00 0.00 74 1013.0
20260904070039 75 113 0.0 0.0 0.00 0.00 0.00 74 1013.1
20260904065536 75 113 0.0 0.0 0.00 0.00 0.00 74 1013.2
20260904065036 75 113 0.0 0.0 0.00 0.00 0.00 74 1013.3
20260904064536 75 113 0.0 0.0 0.00 0.00 0.00 73 1013.4
20260904064035 75 113 0.0 0.0 0.00 0.00 0.00 73 1013.4
20260904063537 75 113 0.0 0.0 0.00 0.00 0.00 73 1013.3
20260904063034 75 113 0.0 0.0 0.00 0.00 0.00 73 1013.3
20260904062535 76 113 0.0 0.0 0.00 0.00 0.00 73 1013.3
20260904062034 76 113 0.0 0.0 0.00 0.00 0.00 73 1013.3
20260904061538 76 113 0.0 0.0 0.00 0.00 0.00 73 1013.3
20260904061033 76 113 0.0 0.0 0.00 0.00 0.00 73 1013.4
20260904060533 76 113 0.0 0.0 0.00 0.00 0.00 73 1013.4
20260904060033 76 113 0.0 0.0 0.00 0.00 0.00 73 1013.4
20260904055533 76 113 0.0 0.0 0.00 0.00 0.00 73 1013.3
20260904055031 76 113 0.0 0.0 0.00 0.00 0.00 73 1013.3
20260904054535 76 113 0.0 0.0 0.00 0.00 0.00 73 1013.3
20260904054032 76 113 0.0 0.0 0.00 0.00 0.00 72 1013.3
20260904053530 76 113 0.0 0.0 0.00 0.00 0.00 72 1013.3
20260904053033 76 113 0.0 0.0 0.00 0.00 0.00 72 1013.3
20260904052529 76 113 0.0 0.0 0.00 0.00 0.00 72 1013.3
20260904052029 76 113 0.0 0.0 0.00 0.00 0.00 72 1013.3
20260904051533 76 113 0.0 0.0 0.00 0.00 0.00 72 1013.3
20260904051029 76 113 0.0 0.0 0.00 0.00 0.00 72 1013.3
20260904050528 77 113 0.0 0.0 0.00 0.00 0.00 72 1013.4
20260904050027 77 113 0.0 0.0 0.00 0.00 0.00 72 1013.3
20260904045527 77 113 0.0 0.0 0.00 0.00 0.00 72 1013.3
20260904045027 77 113 0.0 0.0 0.00 0.00 0.00 72 1013.3
20260904044539 77 113 0.0 0.0 0.00 0.00 0.00 71 1013.3
20260904044028 77 113 0.0 0.0 0.00 0.00 0.00 71 1013.3
20260904043528 77 113 0.0 0.0 0.00 0.00 0.00 71 1013.3
20260904043025 77 113 0.0 0.0 0.00 0.00 0.00 71 1013.4
20260904042525 77 113 0.0 0.0 0.00 0.00 0.00 71 1013.3
20260904042026 77 113 0.0 0.0 0.00 0.00 0.00 71 1013.3
20260904041534 77 113 0.0 0.0 0.00 0.00 0.00 71 1013.2
20260904041023 77 113 0.0 0.0 0.00 0.00 0.00 71 1013.3
20260904040523 77 113 0.0 0.0 0.00 0.00 0.00 70 1013.2
20260904040023 77 113 0.0 0.0 0.00 0.00 0.00 70 1013.3
20260904035522 78 113 0.0 0.0 0.00 0.00 0.00 70 1013.2
20260904035021 78 113 0.0 0.0 0.00 0.00 0.00 70 1013.2
20260904034521 78 113 0.0 0.0 0.00 0.00 0.00 70 1013.2
20260904034021 78 113 0.0 0.0 0.00 0.00 0.00 70 1013.3
20260904033522 78 113 0.0 0.0 0.00 0.00 0.00 70 1013.3
20260904033020 78 113 0.0 0.0 0.00 0.00 0.00 70 1013.3
20260904032520 78 113 0.0 0.0 0.00 0.00 0.00 70 1013.3
20260904032120 78 113 0.0 0.0 0.00 0.00 0.00 69 1013.2
20260904031520 78 113 0.0 0.0 0.00 0.00 0.00 69 1013.2
20260904031022 79 113 0.0 0.0 0.00 0.00 0.00 69 1013.2
20260904030519 79 113 0.0 0.0 0.00 0.00 0.00 69 1013.2
20260904030020 79 113 0.0 0.0 0.00 0.00 0.00 69 1013.3
20260904025519 79 113 0.0 0.0 0.00 0.00 0.00 69 1013.3
20260904025019 79 113 0.0 0.0 0.00 0.00 0.00 69 1013.3
20260904024520 79 113 0.0 0.0 0.00 0.00 0.00 69 1013.4
20260904024019 79 113 0.0 0.0 0.00 0.00 0.00 69 1013.4
20260904023521 80 113 0.0 0.0 0.00 0.00 0.00 68 1013.3
20260904023019 80 113 0.0 0.0 0.00 0.00 0.00 68 1013.3
20260904022521 80 113 0.0 0.0 0.00 0.00 0.00 68 1013.2
20260904022020 80 113 0.0 0.0 0.00 0.00 0.00 67 1013.3
20260904021518 80 113 0.0 0.0 0.00 0.00 0.00 67 1013.3
20260904021018 80 113 0.0 0.0 0.00 0.00 0.00 67 1013.3
20260904020518 81 113 0.0 0.0 0.00 0.00 0.00 67 1013.3
20260904020021 81 113 0.0 0.0 0.00 0.00 0.00 66 1013.3
20260904015517 81 113 0.0 0.0 0.00 0.00 0.00 66 1013.3
20260904015018 81 113 0.0 0.0 0.00 0.00 0.00 66 1013.3
20260904014518 81 113 0.0 0.0 0.00 0.00 0.00 65 1013.4
20260904014018 82 113 0.0 0.0 0.00 0.00 0.00 65 1013.4
20260904013516 82 113 0.0 0.0 0.00 0.00 0.00 65 1013.4
20260904013016 82 113 0.0 0.0 0.00 0.00 0.00 65 1013.4
20260904012516 82 113 0.0 0.0 0.00 0.00 0.00 64 1013.3
20260904012017 83 113 0.0 0.0 0.00 0.00 0.00 64 1013.3
20260904011516 83 113 0.0 0.0 0.00 0.00 0.00 64 1013.3
20260904011016 83 113 0.0 0.0 0.00 0.00 0.00 64 1013.3
20260904010516 84 113 0.0 0.0 0.00 0.00 0.00 63 1013.3
20260904010016 84 113 0.0 0.0 0.00 0.00 0.00 63 1013.3
20260904005515 84 113 0.0 0.0 0.00 0.00 0.00 62 1013.2
20260904005015 84 113 0.0 0.0 0.00 0.00 0.00 61 1013.2
20260904004516 85 113 0.0 0.0 0.00 0.00 0.00 61 1013.1
20260904004015 85 113 0.0 0.0 0.00 0.00 0.00 61 1013.0
20260904003514 86 113 0.0 0.0 0.00 0.00 0.00 61 1013.0
20260904003015 86 113 0.0 0.0 0.00 0.00 0.00 60 1012.9
20260904002515 86 113 0.0 0.0 0.00 0.00 0.00 59 1012.8
20260904002015 87 113 0.0 0.0 0.00 0.00 0.00 59 1012.9
20260904001515 87 113 0.0 0.0 0.00 0.00 0.00 58 1012.8
20260904001016 87 113 0.0 0.0 0.00 0.00 0.00 58 1012.9
20260904000514 87 113 0.0 0.0 0.00 0.00 0.00 57 1012.8
20260904000015 88 113 0.0 0.0 0.00 0.00 0.00 56 1012.7
20260903235513 88 113 0.0 0.0 0.00 0.00 0.00 56 1012.7
20260903235016 88 113 0.0 0.0 0.00 0.00 0.00 55 1012.8
20260903234513 88 113 0.0 0.0 0.00 0.00 0.00 55 1012.7
20260903234013 89 113 0.0 0.0 0.00 0.00 0.00 54 1012.7
20260903233512 89 113 0.0 0.0 0.00 0.00 0.00 54 1012.6
20260903233013 89 113 0.0 0.0 0.00 0.00 0.00 54 1012.7
20260903232512 89 113 0.0 0.0 0.00 0.00 0.00 53 1012.6
20260903232012 89 113 0.0 0.0 0.00 0.00 0.00 52 1012.6
20260903231513 89 113 0.0 2.0 0.00 0.00 0.00 52 1012.5
20260903231012 90 113 0.0 4.0 0.00 0.00 0.00 52 1012.5
20260903230512 90 120 0.0 4.0 0.00 0.00 0.00 52 1012.4
20260903230012 90 105 1.0 4.0 0.00 0.00 0.00 52 1012.5
20260903225512 90 360 0.0 0.0 0.00 0.00 0.00 52 1012.5
20260903225012 91 360 0.0 0.0 0.00 0.00 0.00 52 1012.6
20260903224511 91 360 0.0 0.0 0.00 0.00 0.00 50 1012.5
20260903224011 91 360 0.0 1.0 0.00 0.00 0.00 50 1012.5
20260903223514 91 360 0.0 1.0 0.00 0.00 0.00 50 1012.4
20260903223019 91 360 0.0 2.0 0.00 0.00 0.00 49 1012.4
20260903222510 91 360 0.0 2.0 0.00 0.00 0.00 49 1012.4
20260903222012 92 213 0.0 1.0 0.00 0.00 0.00 48 1012.1
20260903221510 92 213 0.0 2.0 0.00 0.00 0.00 48 1012.0
20260903221010 92 212 0.0 2.0 0.00 0.00 0.00 47 1012.0
20260903220509 92 248 0.0 2.0 0.00 0.00 0.00 48 1012.0
20260903220010 92 257 0.0 1.0 0.00 0.00 0.00 47 1011.9
20260903215510 93 302 0.0 1.0 0.00 0.00 0.00 48 1012.0
20260903215011 93 269 0.0 1.0 0.00 0.00 0.00 47 1011.9
20260903214513 93 269 0.0 1.0 0.00 0.00 0.00 46 1012.0
20260903214009 93 293 0.0 2.0 0.00 0.00 0.00 47 1012.1
20260903213508 93 293 0.0 2.0 0.00 0.00 0.00 47 1012.0
20260903213012 93 97 0.0 2.0 0.00 0.00 0.00 47 1011.8
20260903212508 93 355 0.0 5.0 0.00 0.00 0.00 45 1011.9
20260903212011 94 259 0.0 5.0 0.00 0.00 0.00 45 1012.0
20260903211507 94 297 0.0 3.0 0.00 0.00 0.00 46 1012.0
20260903211007 94 202 0.0 2.0 0.00 0.00 0.00 45 1011.9
20260903210507 94 165 0.0 3.0 0.00 0.00 0.00 46 1012.0
20260903210007 94 124 0.0 3.0 0.00 0.00 0.00 45 1012.0
20260903205506 94 279 0.0 1.0 0.00 0.00 0.00 47 1012.0
20260903205007 94 272 0.0 1.0 0.00 0.00 0.00 47 1012.2
20260903204506 94 272 0.0 3.0 0.00 0.00 0.00 45 1012.2
20260903204006 94 258 0.0 4.0 0.00 0.00 0.00 46 1012.3
20260903203506 94 10 1.0 4.0 0.00 0.00 0.00 44 1012.3
20260903203004 94 185 0.0 3.0 0.00 0.00 0.00 47 1012.3
20260903202502 94 187 0.0 3.0 0.00 0.00 0.00 49 1012.4
20260903202001 94 83 0.0 1.0 0.00 0.00 0.00 49 1012.4
20260903201601 94 159 0.0 1.0 0.00 0.00 0.00 47 1012.5
20260903201059 94 159 0.0 3.0 0.00 0.00 0.00 45 1012.6
20260903200559 94 159 0.0 3.0 0.00 0.00 0.00 47 1012.8
20260903200108 95 142 0.0 2.0 0.00 0.00 0.00 47 1012.9
20260903195557 95 142 0.0 2.0 0.00 0.00 0.00 46 1013.0
20260903195059 95 216 0.0 2.0 0.00 0.00 0.00 44 1013.0
20260903194557 95 215 0.0 3.0 0.00 0.00 0.00 45 1013.1
20260903194056 95 190 0.0 2.0 0.00 0.00 0.00 46 1013.2
20260903193556 95 317 0.0 2.0 0.00 0.00 0.00 44 1013.2
20260903193101 95 219 0.0 1.0 0.00 0.00 0.00 45 1013.2
20260903192555 96 23 0.0 2.0 0.00 0.00 0.00 45 1013.2
20260903192055 96 40 0.0 2.0 0.00 0.00 0.00 43 1013.2
20260903191602 96 286 0.0 1.0 0.00 0.00 0.00 44 1013.3
20260903191053 97 286 0.0 1.0 0.00 0.00 0.00 44 1013.4
20260903190553 97 286 0.0 2.0 0.00 0.00 0.00 45 1013.5
20260903190052 97 286 0.0 2.0 0.00 0.00 0.00 43 1013.5
20260903185550 96 323 0.0 3.0 0.00 0.00 0.00 43 1013.5
20260903185050 96 279 0.0 2.0 0.00 0.00 0.00 43 1013.6
20260903184552 96 281 0.0 2.0 0.00 0.00 0.00 44 1013.7
20260903184047 96 44 0.0 2.0 0.00 0.00 0.00 46 1013.7
20260903183545 95 40 0.0 2.0 0.00 0.00 0.00 44 1013.7
20260903183104 95 278 0.0 2.0 0.00 0.00 0.00 44 1013.8
20260903182546 95 331 0.0 4.0 0.00 0.00 0.00 43 1013.7
20260903182043 95 188 0.0 4.0 0.00 0.00 0.00 43 1013.6
20260903181542 95 305 0.0 4.0 0.00 0.00 0.00 45 1013.7
20260903181042 95 302 1.0 4.0 0.00 0.00 0.00 46 1013.8
20260903180542 94 34 0.0 1.0 0.00 0.00 0.00 46 1013.8
20260903180040 94 11 0.0 2.0 0.00 0.00 0.00 48 1013.9
20260903175540 94 360 0.0 3.0 0.00 0.00 0.00 45 1013.8
20260903175044 94 308 0.0 3.0 0.00 0.00 0.00 46 1014.0
20260903174540 94 349 0.0 3.0 0.00 0.00 0.00 47 1014.1
20260903174040 94 47 0.0 2.0 0.00 0.00 0.00 46 1014.2
20260903173541 94 316 0.0 2.0 0.00 0.00 0.00 46 1014.2
20260903173039 94 316 0.0 2.0 0.00 0.00 0.00 45 1014.2
20260903172541 94 22 0.0 3.0 0.00 0.00 0.00 45 1014.2
20260903172039 94 267 0.0 3.0 0.00 0.00 0.00 45 1014.3
20260903171538 94 188 1.0 3.0 0.00 0.00 0.00 43 1014.4
20260903171039 94 276 0.0 3.0 0.00 0.00 0.00 43 1014.4
20260903170538 94 291 0.0 4.0 0.00 0.00 0.00 44 1014.4
20260903170038 94 290 0.0 4.0 0.00 0.00 0.00 44 1014.5
20260903165538 94 231 0.0 2.0 0.00 0.00 0.00 44 1014.4
20260903165042 95 207 0.0 2.0 0.00 0.00 0.00 46 1014.5
20260903164537 95 279 0.0 3.0 0.00 0.00 0.00 46 1014.6
20260903164039 95 279 0.0 3.0 0.00 0.00 0.00 45 1014.7
20260903163534 95 313 1.0 3.0 0.00 0.00 0.00 47 1014.7
20260903163034 95 313 0.0 3.0 0.00 0.00 0.00 47 1014.6
20260903162532 95 275 0.0 3.0 0.00 0.00 0.00 48 1014.7
20260903162031 95 243 0.0 2.0 0.00 0.00 0.00 46 1014.7
20260903161536 95 159 1.0 3.0 0.00 0.00 0.00 48 1014.7
20260903161029 94 169 0.0 3.0 0.00 0.00 0.00 48 1014.8
20260903160528 94 292 0.0 3.0 0.00 0.00 0.00 49 1014.8